Theta_e
317 317 316 313 311 308 307 306 305 304 305 305 305 304 304 304 303 303 303 304 304 304 304 304 304 304 305 305 305 306 306 307 307 307 309 311 312 313 313 311 309 306 305 306 305 306 305 304 305 307 307 307 308 309 309 310 310 311 314 315 314 315 314 314 318 313 312 316 311 308 309 311 314 311 309 311 310 309 309 309 310 310 309 309 309 309 309 308
318 318 317 317 315 313 311 308 306 305 304 304 304 304 304 304 304 303 303 303 303 304 304 304 303 304 304 304 305 305 305 306 307 308 311 312 312 313 312 310 308 306 305 306 306 305 305 305 305 307 308 307 308 309 309 309 309 311 314 313 312 316 313 309 315 311 308 312 310 308 309 309 313 310 309 312 311 308 309 310 308 309 309 309 309 308 309 308
320 319 319 318 318 317 315 313 310 308 306 305 304 304 304 304 304 303 303 303 303 303 303 303 303 303 303 304 304 304 305 306 307 309 312 312 313 313 311 308 306 305 305 305 306 305 305 305 305 307 308 307 308 309 310 310 310 309 310 313 314 315 312 306 308 309 308 310 308 307 308 307 310 309 309 311 310 309 310 310 307 307 308 308 308 308 308 308
321 321 320 319 319 318 318 317 316 314 311 308 306 304 303 303 303 303 303 303 303 303 303 303 303 303 303 303 304 304 305 306 307 310 311 312 312 312 310 308 306 305 305 305 305 305 305 305 305 306 307 307 307 309 310 310 311 309 308 314 314 309 310 309 308 310 308 307 307 307 307 308 309 308 308 308 309 310 309 308 307 307 307 307 307 306 307 306
322 322 322 321 320 319 319 319 318 318 316 314 312 308 306 304 304 303 303 303 303 303 303 303 303 303 303 303 303 303 305 307 311 311 309 310 311 310 310 309 307 306 305 305 305 305 305 305 305 306 306 306 307 309 310 310 310 310 308 309 309 305 309 310 308 309 308 307 307 306 308 310 308 308 308 307 309 310 308 308 308 307 307 307 307 307 306 306
322 322 322 322 321 321 320 319 319 319 318 318 317 314 311 309 307 305 304 303 303 303 303 303 303 303 303 303 303 303 304 307 312 312 310 311 311 308 309 310 309 306 305 305 305 304 305 305 306 307 306 306 308 310 309 309 309 311 311 307 306 306 307 309 308 308 309 308 307 307 309 308 307 309 308 307 308 310 309 309 308 308 308 308 308 307 307 306
321 321 321 322 321 322 321 320 320 319 319 319 319 318 316 314 312 310 307 305 303 303 303 303 303 303 303 302 302 303 303 306 308 308 309 310 310 308 308 310 310 308 306 306 305 305 304 305 307 307 307 307 307 308 308 309 308 311 313 308 308 307 306 308 308 308 308 308 308 308 309 308 308 311 309 307 308 309 309 309 309 309 309 308 308 308 308 307
321 321 321 321 321 321 321 321 321 320 320 319 319 319 319 318 317 316 313 310 306 303 303 303 303 302 303 302 302 303 303 305 305 305 306 307 308 307 308 311 310 309 306 306 305 305 304 305 307 306 308 307 306 307 308 309 310 312 313 309 308 307 307 309 308 308 308 308 308 308 309 308 308 309 309 309 309 310 310 309 310 309 309 309 309 309 309 308
320 320 320 320 320 320 320 321 321 321 320 320 320 319 319 319 319 319 317 315 312 307 304 302 303 302 302 302 303 303 304 306 307 306 306 306 307 307 308 311 310 309 307 306 305 305 305 305 306 306 307 307 306 307 307 309 311 311 311 308 307 308 308 309 309 309 309 308 308 309 311 309 307 309 310 311 310 310 310 309 310 309 309 309 309 309 309 308
319 320 320 320 320 320 320 320 320 320 320 320 320 319 319 319 319 320 319 319 317 314 309 304 302 302 302 302 304 305 306 308 309 308 308 307 309 309 310 311 311 309 307 306 306 305 305 305 306 306 306 306 306 307 306 309 310 309 308 308 308 309 309 309 309 309 309 309 308 311 313 309 307 309 311 311 310 310 309 309 309 309 309 309 309 308 308 308
319 319 319 319 319 319 319 319 320 320 320 320 319 319 319 319 319 319 319 319 319 319 316 310 304 302 301 301 303 306 306 307 307 307 307 307 309 310 311 311 310 309 307 306 306 306 305 305 305 306 306 306 306 306 306 307 308 308 308 309 310 309 308 308 309 308 307 309 307 309 311 308 308 309 311 311 310 309 309 309 309 309 309 309 309 308 308 308
317 318 318 319 319 319 319 319 319 319 319 319 318 318 318 318 319 319 319 319 318 319 318 317 310 303 301 300 302 304 304 304 305 304 304 305 306 308 309 310 310 308 307 306 306 306 305 305 304 305 307 306 307 306 306 308 308 308 308 311 314 312 311 309 309 307 306 310 307 307 311 311 311 312 312 311 310 310 309 309 309 309 310 309 309 309 308 308
314 315 316 317 318 318 318 318 319 319 319 319 318 318 318 318 318 318 319 318 318 318 318 319 315 305 301 301 303 304 304 304 304 304 303 304 304 306 307 308 308 307 306 306 306 306 305 305 304 306 307 306 307 306 307 307 306 309 309 311 313 313 314 310 307 307 306 310 307 307 313 317 318 313 311 312 311 309 309 309 310 310 310 310 310 309 309 308
310 311 312 314 315 317 317 318 318 318 319 319 319 318 318 318 317 318 318 318 318 316 316 318 314 306 301 303 304 304 304 303 304 304 304 304 304 304 305 306 306 306 305 305 306 306 305 305 305 306 306 307 307 306 309 309 309 311 309 312 312 311 317 313 306 309 310 310 306 308 313 315 320 316 312 312 311 309 309 310 311 311 310 310 310 310 310 309
308 308 309 310 312 313 315 316 317 318 318 318 318 319 318 318 318 317 317 318 318 315 315 316 313 305 301 303 305 304 304 303 304 303 303 303 303 304 304 305 305 305 305 304 305 305 305 305 305 306 306 307 307 307 313 316 317 316 310 315 316 311 318 317 309 310 314 311 305 308 315 315 316 314 310 310 310 309 308 309 310 310 310 310 310 310 310 309
308 308 308 309 309 310 311 313 315 316 317 318 318 318 318 318 317 317 317 317 317 315 314 314 310 305 302 305 307 305 304 304 304 304 304 303 303 303 304 304 304 304 304 305 305 305 305 305 305 306 306 309 310 310 313 313 316 316 311 314 317 313 316 317 312 307 310 312 308 310 315 316 314 310 308 308 308 308 307 308 309 309 310 310 310 310 310 310
308 308 308 309 309 309 309 310 311 313 315 317 318 318 317 317 317 316 316 316 317 315 312 310 306 305 306 308 309 307 305 305 305 305 305 305 304 303 304 304 304 305 305 305 305 305 305 305 306 308 308 310 312 310 309 310 312 314 310 312 315 313 313 316 316 308 306 311 313 312 311 313 313 309 307 308 308 307 306 307 308 309 309 308 309 309 309 309
307 308 308 308 308 308 309 309 309 310 312 314 316 317 317 316 316 316 315 316 315 311 308 306 303 307 312 309 308 308 305 306 305 305 306 306 305 304 304 304 305 306 305 305 305 305 306 304 306 310 310 310 310 308 308 311 312 315 315 315 316 315 313 315 316 311 309 311 313 313 311 311 311 310 309 308 308 307 306 307 307 307 308 308 308 308 308 309
306 307 307 307 307 307 308 308 309 309 309 311 314 316 317 316 315 315 315 314 310 308 310 308 304 311 315 307 305 306 305 305 305 306 306 306 305 304 304 305 306 306 305 306 307 305 306 305 307 310 310 310 310 308 308 310 311 317 321 318 319 319 315 315 316 311 311 313 313 312 311 311 310 310 309 307 307 306 306 306 307 307 307 307 307 307 307 308
304 305 306 306 306 306 306 307 308 309 309 309 311 314 315 315 315 314 312 310 310 313 315 313 310 312 312 309 309 308 306 305 305 306 306 306 305 305 305 306 307 306 306 310 310 305 305 308 308 309 309 309 310 309 309 310 311 313 316 315 315 316 313 314 314 310 308 310 314 313 310 310 309 309 308 306 306 307 306 306 306 306 307 307 307 307 307 308
303 303 304 304 304 305 305 306 306 307 308 309 310 313 314 314 315 314 311 311 313 315 315 314 313 312 312 313 313 311 308 305 305 306 306 306 305 306 307 307 309 308 307 308 309 306 306 308 307 308 309 310 312 312 311 311 311 311 312 313 312 312 312 311 310 310 308 308 313 314 310 309 308 308 308 307 308 309 308 308 306 306 306 306 306 307 308 308
301 302 302 302 303 304 304 304 305 306 307 308 308 311 314 315 316 315 313 312 313 313 314 314 313 312 313 314 314 312 308 305 305 306 306 306 306 306 307 308 310 310 307 305 307 308 308 309 308 307 310 312 314 314 311 310 310 311 311 310 311 311 313 313 310 309 309 309 313 315 311 309 309 308 308 308 309 308 307 307 307 306 306 306 306 307 308 308
300 300 301 301 302 302 303 304 304 304 306 308 309 310 312 314 315 314 313 311 311 312 313 313 313 312 312 313 314 311 304 303 305 305 306 306 305 306 306 307 309 309 308 307 307 309 310 310 309 309 310 310 312 312 311 310 309 310 310 310 310 310 311 314 312 309 308 310 312 313 309 307 308 307 309 309 306 307 307 306 306 306 306 307 307 308 308 308
299 300 300 300 300 301 301 302 303 304 306 308 309 309 312 313 314 314 312 309 310 311 312 313 313 312 313 313 313 310 305 304 305 304 306 306 305 306 307 308 308 308 307 307 308 308 309 309 306 308 310 310 310 311 311 311 310 309 309 309 310 310 311 312 312 310 310 309 306 308 309 309 312 311 312 313 307 307 307 305 306 305 306 308 308 309 308 308
299 299 299 299 299 300 300 301 302 305 307 308 309 310 312 313 313 313 310 309 312 311 309 311 311 311 312 311 311 309 306 305 305 305 305 305 306 306 307 307 307 308 307 307 308 307 307 307 306 310 312 309 310 311 311 312 311 310 309 310 310 311 311 311 311 309 313 315 307 307 311 313 318 314 314 318 314 313 311 309 308 305 306 308 308 309 309 308
298 298 299 299 299 300 299 299 301 303 304 307 309 310 311 312 312 311 309 310 313 313 310 311 312 313 311 308 307 307 307 306 305 306 305 305 306 306 307 306 306 308 307 307 308 306 308 307 308 313 312 309 310 310 310 311 310 310 310 310 310 310 311 310 310 309 315 319 309 307 313 313 314 313 314 317 315 313 312 311 310 305 304 306 308 310 309 308
298 298 298 298 298 298 298 297 299 301 302 304 307 308 309 311 311 310 311 312 314 316 314 310 310 311 308 306 306 308 311 309 306 305 304 305 306 306 307 307 306 306 305 306 307 307 309 308 309 311 311 312 311 309 310 309 310 312 309 308 310 310 310 310 309 310 313 313 308 309 314 312 311 312 314 314 314 314 313 314 314 308 303 305 308 309 309 309
297 297 297 297 296 296 296 296 297 300 301 302 304 306 307 310 309 308 312 314 315 318 315 307 306 307 306 305 305 307 309 308 307 307 304 305 306 306 307 307 307 308 307 306 306 308 312 312 311 310 309 310 310 311 311 308 311 313 306 305 309 310 310 310 309 309 310 309 309 312 311 310 313 314 314 313 313 316 315 316 319 313 305 305 308 309 309 309
296 296 296 295 295 295 295 295 296 298 300 301 303 305 307 308 308 308 312 314 317 319 315 307 307 306 304 304 303 304 304 305 308 308 304 305 306 306 307 306 307 309 308 306 307 307 309 310 309 309 310 310 312 312 309 308 311 308 304 306 308 308 309 310 310 310 310 310 311 314 311 310 313 315 315 312 314 317 316 316 317 313 305 304 308 309 309 309
294 295 294 294 294 294 294 295 296 297 298 300 302 305 306 307 308 310 312 314 316 317 311 307 308 305 303 304 303 303 304 305 306 305 305 306 305 305 306 305 306 308 308 307 307 306 305 305 305 308 309 309 311 309 304 309 310 305 308 311 310 310 310 311 312 309 310 311 312 314 312 311 313 315 316 315 317 319 318 318 317 313 308 305 307 310 309 309
293 293 293 293 293 293 294 295 296 296 297 298 301 305 306 306 307 311 313 313 314 315 311 308 306 304 305 306 306 304 304 306 305 305 306 306 305 306 305 306 308 309 308 308 308 307 306 306 307 308 306 306 310 308 303 304 305 306 315 315 312 314 313 312 312 309 310 312 311 311 310 309 312 315 317 318 316 316 318 319 318 318 315 307 308 311 309 310
292 292 292 292 293 293 295 297 298 297 296 297 301 304 305 306 307 311 312 312 315 316 313 310 307 306 305 307 308 305 305 307 306 305 307 306 306 306 306 307 309 309 309 309 308 308 308 308 310 308 304 306 311 312 306 303 304 308 314 314 312 315 313 311 313 312 312 310 307 307 308 309 311 313 315 314 312 313 315 315 314 316 314 308 309 312 309 310
290 291 291 292 292 294 297 300 300 299 297 298 302 303 304 307 308 310 311 312 314 314 311 309 309 308 306 307 309 306 305 308 306 306 307 307 306 306 306 307 308 310 311 311 309 309 310 309 309 308 306 307 308 310 309 306 306 307 310 313 312 312 311 309 311 311 312 309 306 304 308 310 312 313 312 310 310 313 312 309 307 308 309 309 310 311 309 310
290 290 291 292 292 294 298 299 301 301 299 299 302 302 304 307 308 309 311 311 312 311 309 308 308 308 306 308 310 307 306 308 308 307 307 307 307 307 307 307 307 309 311 311 310 310 312 312 310 309 309 308 307 308 310 309 307 306 310 313 310 312 313 310 311 313 313 314 308 304 308 314 319 320 314 311 314 313 308 305 304 304 306 309 309 309 309 310
289 289 290 291 292 295 298 298 299 300 300 300 301 301 303 306 306 309 311 310 310 309 308 307 307 308 308 308 310 309 307 308 308 308 308 308 308 308 308 307 306 308 309 309 310 310 310 312 312 308 307 308 308 309 311 310 308 307 309 312 310 314 314 310 312 313 312 313 311 307 310 315 320 318 311 309 313 312 307 305 305 304 304 305 306 306 308 309
289 289 290 291 292 295 299 298 296 299 301 301 301 302 303 304 305 308 308 306 307 307 307 308 308 309 309 309 311 310 308 308 309 309 308 308 308 308 310 308 306 307 308 309 311 311 310 312 311 306 306 307 307 309 310 309 309 307 308 309 309 313 315 311 310 309 308 310 311 312 313 314 315 313 312 313 314 314 312 311 310 306 301 301 303 305 306 308
289 290 290 291 294 297 299 297 295 298 301 300 300 302 303 303 305 305 303 301 304 305 306 307 308 309 310 311 313 312 310 310 310 310 309 309 309 309 310 310 308 306 307 308 311 313 312 312 309 307 308 306 302 305 309 308 307 309 310 309 307 309 314 314 311 311 312 311 312 314 313 313 314 314 316 316 314 314 314 313 312 307 303 303 303 304 306 307
289 289 290 293 296 296 296 295 295 298 300 300 300 302 302 303 304 301 299 300 303 304 304 306 308 309 309 309 311 311 310 311 310 310 310 310 311 310 309 311 310 307 307 307 310 313 313 311 309 307 307 305 302 305 310 307 304 307 310 309 308 310 312 313 311 312 312 311 312 315 313 312 312 314 317 317 316 316 314 312 310 309 310 307 303 303 305 306
289 289 291 294 294 292 293 295 296 298 300 299 300 301 301 302 301 299 299 301 302 303 304 305 306 307 307 307 309 309 308 309 310 310 310 311 312 311 309 310 310 308 307 306 308 311 312 312 310 306 304 306 306 307 310 308 305 305 306 306 307 310 312 312 312 313 313 311 311 315 313 312 313 314 316 319 322 320 319 318 313 310 310 306 303 304 305 306
289 290 291 291 291 292 294 296 298 299 300 300 300 300 300 300 299 299 300 300 300 301 303 303 303 303 305 305 305 306 307 308 308 308 310 311 312 312 309 308 310 310 307 306 307 308 310 312 312 306 303 306 308 308 309 309 307 306 306 307 307 307 310 312 311 313 315 313 313 314 312 313 318 316 313 316 318 317 320 324 320 311 307 304 304 306 307 308
289 290 290 290 291 294 294 296 298 299 299 300 299 298 299 299 299 299 299 299 299 300 301 302 302 302 304 304 303 304 305 305 306 308 310 310 310 312 309 306 306 308 308 307 307 307 309 312 312 308 305 307 308 307 306 308 308 307 307 308 307 307 309 311 310 311 313 312 314 315 311 313 320 316 311 312 316 316 315 321 327 317 305 303 304 306 309 310
289 290 290 291 293 294 294 296 298 298 298 298 296 295 297 297 298 299 299 297 297 299 300 301 301 302 303 302 300 301 300 302 305 307 308 309 309 310 306 300 299 303 307 309 308 308 309 310 310 309 308 308 306 303 302 304 306 306 307 308 308 308 309 310 311 312 311 310 312 313 311 312 315 314 314 315 319 319 310 311 324 320 303 302 306 307 310 311
289 290 290 291 292 293 294 296 296 295 295 295 293 294 295 296 297 297 297 296 296 298 300 300 300 300 300 299 297 298 298 299 302 303 302 303 304 305 301 297 297 300 304 307 307 307 308 309 309 310 309 307 304 301 300 300 303 305 307 306 307 308 308 310 311 311 311 311 311 310 310 311 311 313 316 316 316 317 308 304 313 314 303 303 307 307 309 310
289 290 289 290 291 293 294 295 294 292 293 293 292 293 293 295 296 295 295 296 296 297 298 299 299 299 298 297 296 297 297 297 298 298 298 298 300 301 299 297 297 298 300 303 304 304 306 309 310 310 311 309 307 306 304 301 302 305 308 306 305 306 308 309 309 308 309 312 312 311 311 312 313 314 316 316 315 318 313 304 304 307 304 304 307 308 308 308
289 290 290 290 292 294 293 292 292 292 292 292 292 292 293 293 294 293 294 295 295 295 296 296 297 298 296 295 295 296 296 296 296 296 296 297 298 299 298 296 297 298 299 301 302 302 305 309 310 310 311 312 311 311 309 306 304 304 306 307 305 306 307 308 309 308 308 311 311 312 312 313 316 318 316 317 317 317 316 309 303 303 305 306 308 308 308 307
290 290 290 290 291 292 292 291 291 291 292 291 291 292 292 292 292 292 294 295 293 293 294 295 296 295 294 294 294 294 294 295 295 295 296 297 297 298 297 296 296 297 299 300 300 301 304 308 309 309 310 311 311 311 309 307 305 305 306 306 305 305 307 308 309 309 309 310 310 310 312 312 315 317 317 317 317 314 314 315 310 305 305 307 308 308 307 308
290 290 290 290 290 291 291 290 289 290 291 292 291 291 292 291 291 292 294 294 292 291 292 294 295 293 292 293 294 293 293 294 294 295 296 296 296 296 296 295 296 298 298 299 299 300 302 304 306 308 309 309 310 310 309 307 307 306 306 306 305 305 306 307 308 309 309 310 310 310 311 311 311 312 313 314 314 312 311 313 312 306 305 307 308 307 307 308
290 290 290 290 290 290 289 289 289 289 290 291 291 292 292 291 291 291 292 292 291 290 292 294 293 292 291 293 293 293 293 293 293 294 296 296 295 295 295 295 297 297 297 296 297 300 301 301 303 306 307 308 309 309 310 309 308 307 306 306 306 305 305 306 307 309 309 310 310 311 311 312 310 310 311 311 311 311 309 308 308 306 306 307 307 307 308 308
290 290 289 289 289 289 288 289 289 289 289 290 291 292 291 291 291 291 291 290 290 290 291 292 292 291 291 291 292 292 293 293 294 294 295 294 293 294 295 295 296 297 296 295 296 299 301 301 302 305 305 307 308 308 308 309 308 308 307 306 306 305 305 306 306 307 308 309 310 310 311 311 310 309 310 309 307 308 307 306 306 306 306 306 306 305 307 308
289 289 289 289 288 288 288 288 289 289 289 289 290 291 291 291 291 290 290 290 289 290 291 291 290 291 291 291 291 292 292 293 293 293 293 292 292 293 294 295 295 295 295 294 296 299 302 301 302 304 305 306 307 307 307 307 308 308 308 307 306 305 304 305 306 306 307 307 308 308 308 308 307 308 309 307 305 306 307 307 307 307 308 307 305 304 306 307
289 289 289 289 288 288 288 288 287 288 289 289 290 291 290 290 290 289 289 289 290 290 290 290 290 290 290 291 291 291 292 292 292 291 291 291 291 292 293 294 294 294 294 295 296 298 300 301 301 303 304 305 306 307 307 307 307 307 307 307 307 306 305 305 305 305 306 306 307 307 307 307 307 309 309 308 307 307 308 307 307 307 308 307 305 303 305 306
289 289 289 288 288 288 288 287 287 287 288 289 290 289 289 289 289 288 288 289 290 290 289 290 290 290 290 290 291 291 291 291 290 290 290 290 291 291 292 293 293 294 294 294 295 297 299 300 301 302 303 304 305 307 307 307 307 307 307 307 306 306 306 305 305 304 305 305 306 307 307 306 308 309 308 308 308 307 307 307 307 307 307 307 306 305 305 306
Wind_Speed
20 20 20 20 19 18 17 16 16 15 15 15 15 15 15 14 14 14 15 15 16 17 17 17 17 17 17 18 19 20 20 20 20 20 21 18 17 18 15 12 11 10 8 7 8 7 7 7 7 7 6 6 5 7 8 7 9 7 3 2 4 4 4 6 8 7 4 3 3 4 8 8 4 6 8 8 12 17 19 23 25 24 28 30 27 25 23 20
21 21 21 21 21 20 19 18 17 17 16 16 15 15 16 16 16 15 15 16 16 17 17 17 17 17 17 18 19 20 21 21 23 24 23 19 16 12 9 9 10 9 8 8 8 7 7 7 8 8 8 6 5 7 8 7 9 6 2 2 5 6 6 7 8 7 5 4 4 4 7 9 8 6 4 6 9 10 12 19 22 26 31 32 31 30 30 28
22 22 22 21 21 21 21 20 19 18 17 17 17 17 17 17 17 16 16 16 17 17 17 18 17 17 17 17 18 19 20 22 25 27 21 14 8 3 4 7 8 8 8 8 8 7 6 6 7 9 9 7 6 8 7 6 7 6 4 3 8 7 5 9 11 12 11 7 3 3 6 8 11 9 5 5 8 8 10 17 14 20 31 28 24 24 26 29
20 21 21 22 22 21 21 21 20 20 19 18 18 18 18 18 18 18 18 18 18 18 18 18 18 17 16 16 17 16 17 19 20 18 10 8 4 2 3 6 8 8 8 8 8 7 6 5 7 9 9 6 5 7 6 9 8 4 6 6 6 4 4 11 13 15 14 9 5 4 3 6 11 11 10 6 6 9 15 24 22 22 28 22 15 14 17 22
19 20 20 20 21 22 22 21 21 21 20 20 19 19 19 18 18 18 18 19 19 19 19 20 19 18 17 16 15 14 12 10 8 4 6 6 1 5 5 6 8 8 8 7 7 7 6 6 7 8 7 4 4 4 5 13 11 4 8 11 7 5 3 9 8 10 12 9 7 4 3 7 7 9 16 12 8 15 20 23 23 21 21 18 16 15 17 20
20 19 19 19 20 20 21 22 22 22 21 20 20 20 20 19 19 19 19 19 19 20 20 20 21 19 18 16 15 13 7 4 3 1 5 7 9 12 11 9 9 9 8 7 7 7 7 8 8 8 6 2 5 6 4 12 13 4 7 10 12 11 8 9 7 6 9 8 8 5 7 8 4 7 16 18 23 33 34 27 26 26 24 25 24 22 23 24
22 21 20 20 19 19 20 21 21 22 22 22 21 21 21 21 20 20 20 19 20 20 20 21 21 20 19 16 15 12 12 16 14 12 15 15 17 19 14 11 10 9 9 8 8 7 8 9 10 8 4 1 5 8 5 8 11 6 6 5 10 13 14 17 14 12 12 11 13 10 9 8 7 8 10 19 36 44 41 34 33 34 33 31 31 30 29 28
22 22 22 22 21 20 20 20 20 21 22 23 23 22 22 21 21 22 22 21 21 20 20 21 20 21 19 17 14 12 18 24 19 19 23 19 19 18 14 13 12 11 10 9 8 8 8 10 12 9 4 3 5 6 5 5 5 7 8 6 5 9 15 18 16 18 16 15 17 12 11 13 14 11 10 30 49 46 42 39 37 37 37 37 37 37 34 33
22 22 22 23 23 22 22 21 21 21 21 22 23 23 23 23 22 22 23 23 22 21 22 21 20 20 18 16 12 10 19 19 13 16 19 17 17 17 16 14 12 12 10 10 9 9 9 9 12 11 6 4 5 5 6 5 4 8 11 7 5 11 15 15 16 19 17 17 14 9 13 16 15 10 16 41 51 42 37 32 31 32 33 33 33 34 33 33
23 23 23 24 24 24 23 22 22 22 22 22 22 23 24 24 23 22 24 25 24 23 23 22 22 20 17 15 6 5 16 13 10 12 11 13 15 15 15 14 13 13 11 11 10 10 10 9 9 11 9 5 5 5 6 7 4 4 7 9 11 18 20 15 16 18 15 16 14 12 12 10 9 5 13 34 28 20 18 14 17 21 23 24 23 25 26 27
22 23 24 25 25 25 25 24 24 23 23 23 22 22 23 25 24 22 23 25 25 25 24 23 23 21 19 15 8 10 17 14 11 12 10 12 13 14 15 14 15 14 13 13 11 11 11 11 10 8 6 4 4 4 6 9 7 4 5 10 12 15 19 15 16 18 11 10 13 15 9 4 4 6 19 35 22 12 13 11 15 18 21 21 19 21 21 24
23 23 24 25 25 26 26 25 25 24 24 24 23 23 23 25 26 24 24 25 25 26 25 24 23 22 20 17 20 22 23 21 21 21 20 18 17 18 17 16 16 15 15 14 13 13 11 12 13 10 6 3 3 2 5 7 6 6 4 6 9 8 12 12 10 10 9 5 7 9 6 5 8 13 34 43 30 22 22 22 24 24 26 25 24 23 23 24
25 25 25 25 25 26 26 26 26 25 25 25 24 23 23 24 26 26 25 24 26 26 26 25 23 23 18 17 27 27 23 23 23 25 24 20 21 21 19 18 17 16 16 15 15 14 12 12 12 13 10 4 2 2 3 2 2 4 1 1 7 7 7 6 2 4 8 3 7 9 6 9 11 23 38 34 26 23 22 27 29 27 29 28 29 29 29 28
25 26 26 26 26 26 26 26 27 26 26 25 24 24 23 24 26 27 26 25 26 25 26 26 23 21 15 19 29 27 25 25 25 27 26 22 23 24 23 21 20 19 18 16 16 14 13 12 10 11 9 7 4 3 4 4 0 2 1 1 2 3 6 5 1 7 6 3 8 9 5 12 8 17 26 22 20 19 19 26 28 28 29 29 30 31 32 31
23 24 25 26 27 27 27 27 27 27 27 27 25 24 23 24 26 27 25 25 25 25 26 25 22 17 15 24 30 24 25 28 28 28 27 26 26 25 24 23 21 20 18 16 15 13 11 10 9 7 5 7 4 2 3 4 2 1 2 4 1 3 6 7 2 8 5 2 7 6 3 13 11 10 15 15 15 15 18 26 28 28 29 29 31 31 33 33
23 23 24 25 26 27 28 28 28 27 27 28 26 25 24 24 26 27 27 26 25 26 25 23 20 13 10 16 21 19 21 25 24 21 22 24 25 25 23 21 18 17 16 13 12 11 10 8 7 4 2 3 3 2 2 3 4 2 3 6 4 4 4 7 3 4 2 2 4 5 3 9 9 3 4 6 8 10 14 23 28 30 32 32 34 34 35 35
23 23 23 24 24 26 27 28 28 28 27 27 27 26 24 25 27 29 28 26 26 24 22 18 12 9 12 15 17 19 20 21 21 18 19 21 22 24 23 19 15 14 12 10 10 9 9 9 5 2 2 2 3 4 0 4 7 3 2 4 5 5 4 5 5 2 1 2 4 5 5 13 15 7 5 5 7 9 13 24 30 33 36 36 36 36 38 38
24 24 24 24 24 25 25 26 27 27 27 26 27 26 23 26 30 30 29 28 23 15 13 13 6 4 12 15 15 18 18 18 19 17 17 18 19 21 20 16 13 11 8 6 8 9 9 6 4 1 1 1 2 6 5 10 8 4 4 3 5 5 5 8 7 2 4 2 4 5 6 17 22 17 17 16 14 15 21 28 31 33 36 36 34 35 37 39
23 23 24 25 25 25 25 25 26 26 27 26 26 25 23 26 29 29 27 21 13 6 6 11 12 5 7 7 7 11 13 14 15 14 15 16 17 18 16 13 11 10 7 3 5 9 9 3 3 3 2 6 9 11 15 13 2 4 7 5 5 5 6 8 6 4 5 2 6 9 10 16 22 21 18 14 13 18 24 27 28 31 34 34 32 34 35 39
25 24 24 26 26 27 26 26 26 25 26 25 24 22 19 17 15 15 15 17 19 17 17 17 19 20 19 16 16 16 16 16 14 12 12 13 16 16 14 11 9 8 6 4 4 6 8 4 4 7 11 14 14 13 15 9 3 1 4 3 5 6 8 6 3 3 3 3 8 11 11 13 21 23 18 13 11 15 19 20 23 28 32 32 32 34 35 36
26 26 27 28 29 29 27 26 27 26 25 24 23 19 16 13 8 7 9 15 24 24 25 27 26 29 30 28 28 27 23 20 16 13 11 13 15 13 12 12 7 4 5 5 3 3 5 6 10 14 14 11 9 10 11 9 5 5 5 6 7 6 10 7 1 3 1 3 7 9 9 13 20 21 17 12 9 13 18 16 20 27 30 30 30 33 33 31
24 24 26 28 29 29 28 27 26 26 26 24 23 21 21 21 19 19 16 15 23 26 27 29 28 34 36 32 34 34 27 18 14 16 15 17 18 13 11 11 6 4 5 5 3 2 4 9 13 14 8 2 3 6 9 10 9 8 5 6 8 4 6 7 2 2 0 3 5 7 8 12 19 21 19 15 12 19 27 22 22 26 27 28 29 29 28 24
24 23 23 24 26 27 26 26 26 25 24 21 22 22 23 24 24 26 22 14 19 26 30 31 31 36 37 34 36 35 28 18 16 22 24 22 22 19 12 9 6 5 5 6 7 5 6 9 11 11 7 5 6 4 6 7 6 7 6 6 8 4 3 5 3 2 1 4 4 6 9 11 15 20 19 16 14 19 26 24 24 27 27 28 28 25 22 20
24 23 24 25 27 28 25 24 25 23 19 17 18 19 20 23 24 24 18 10 13 18 26 33 33 35 36 32 29 29 29 24 20 21 26 28 23 17 12 8 7 5 5 11 12 11 13 8 3 7 10 10 10 5 7 5 5 7 9 9 9 7 8 8 4 3 3 4 3 4 11 10 10 15 15 8 6 11 14 15 19 23 25 26 26 23 20 18
23 23 24 25 27 30 28 24 22 19 17 16 16 16 17 22 24 20 10 5 10 8 11 21 27 29 29 23 20 21 20 22 24 20 24 33 28 14 7 9 8 6 8 11 9 11 16 7 7 7 7 9 9 6 7 7 5 7 9 12 13 11 10 8 4 5 4 5 3 2 7 9 5 9 11 5 4 6 5 7 12 18 21 22 24 23 19 18
22 21 23 24 25 28 28 23 19 18 18 16 15 16 18 20 21 15 4 2 9 3 4 10 14 13 15 17 18 15 6 10 20 24 24 30 33 19 5 6 6 6 8 7 5 5 7 4 8 8 7 8 8 7 7 9 6 8 5 10 14 12 9 8 3 1 3 5 3 3 1 9 5 5 8 6 9 11 6 7 10 14 19 22 25 23 20 19
22 22 23 24 24 25 25 22 20 21 19 16 17 18 19 19 15 9 0 3 9 3 7 7 9 10 11 15 22 17 3 3 9 21 29 28 31 23 10 6 4 3 5 4 4 3 1 3 7 9 8 7 8 6 7 10 7 6 2 5 9 9 9 9 6 5 4 3 3 2 4 8 11 6 6 5 7 12 10 10 11 11 17 23 26 26 23 22
24 24 24 25 23 22 23 22 21 22 19 18 18 18 20 18 9 5 2 6 6 4 6 5 9 11 11 17 25 14 4 9 8 13 28 29 27 19 10 9 6 4 6 6 7 3 4 4 8 10 8 7 7 4 8 13 7 4 2 4 6 6 5 4 5 5 1 3 4 3 6 5 12 6 2 1 4 10 10 11 11 9 13 20 24 27 25 23
25 25 25 26 24 21 21 21 21 20 19 19 15 16 19 12 6 5 4 7 2 2 2 6 9 9 12 17 18 7 3 7 3 7 20 23 24 14 5 7 6 4 5 6 9 5 2 4 6 8 6 6 5 1 7 13 7 3 6 6 6 5 4 4 3 3 3 3 6 6 7 5 12 7 4 2 4 9 10 10 10 8 11 18 22 26 26 25
25 25 26 27 26 23 23 22 20 18 18 17 14 14 12 5 7 4 9 7 1 1 2 6 7 8 13 10 6 4 2 3 4 10 13 12 18 13 1 3 5 3 4 5 8 7 1 4 2 4 5 5 4 3 2 7 6 6 6 5 6 5 4 3 1 4 2 7 6 9 13 9 9 5 7 5 5 7 8 6 6 7 9 15 21 24 26 27
27 25 25 27 27 25 26 24 21 20 18 16 14 10 5 4 3 6 9 2 5 2 3 5 3 7 10 5 2 5 3 1 5 9 8 5 9 8 2 3 2 1 2 5 8 8 3 2 1 3 7 7 6 4 2 2 5 6 4 4 3 3 3 3 4 3 2 9 4 5 10 11 10 7 4 3 4 3 6 6 7 8 8 13 18 21 24 27
28 26 25 25 25 22 21 21 21 21 17 13 12 8 6 3 4 8 6 6 4 3 2 2 2 3 2 4 2 4 2 1 5 6 5 4 6 8 8 8 6 3 3 6 6 5 6 7 5 3 6 9 6 3 3 2 2 3 4 5 3 2 2 3 2 2 5 7 2 1 2 5 12 11 6 11 12 8 8 7 8 9 9 14 17 18 21 26
30 27 23 22 22 18 16 17 19 18 13 8 8 6 5 4 6 8 6 4 5 2 3 1 1 2 0 4 4 3 0 1 4 3 2 3 5 7 8 9 8 4 3 5 3 3 4 5 6 4 3 9 11 7 5 3 5 7 7 7 5 3 4 7 4 1 5 5 2 1 2 3 8 6 9 18 19 13 11 11 12 10 9 13 15 16 19 24
30 27 23 20 18 15 14 15 16 15 10 5 5 4 5 6 6 6 7 6 5 6 4 4 4 1 3 3 3 1 1 3 5 4 2 3 4 5 5 9 11 5 2 3 2 4 4 5 7 9 3 9 15 12 7 5 6 9 7 5 6 6 5 7 5 3 6 4 3 2 2 3 3 2 8 13 11 7 9 15 17 15 12 10 11 13 17 22
30 25 22 18 15 12 11 12 14 11 5 6 5 3 7 7 4 5 5 2 4 6 7 8 5 4 4 3 3 2 4 4 3 5 3 5 5 5 4 8 11 7 3 3 3 4 6 7 6 6 3 10 14 7 4 7 4 5 2 2 5 6 5 4 3 4 1 3 4 3 4 5 4 7 11 7 6 5 8 10 11 14 16 14 14 16 18 22
29 22 18 16 15 12 9 11 14 9 6 8 4 3 7 5 5 4 4 5 3 5 10 9 3 2 4 3 3 3 4 3 3 3 2 5 5 4 3 4 10 12 7 6 3 3 5 5 2 4 2 6 8 3 4 4 3 3 3 5 4 2 4 4 4 2 4 4 6 3 6 7 3 9 12 10 11 8 6 7 7 9 12 14 17 22 23 23
31 25 21 17 14 13 12 15 16 8 8 9 4 4 5 4 7 6 7 8 5 5 7 7 4 2 4 3 3 4 3 2 3 3 2 4 4 5 5 4 8 14 14 10 4 3 6 4 2 5 2 2 1 2 2 1 2 5 5 6 2 3 2 2 3 2 1 6 6 3 8 8 2 6 7 7 12 11 8 8 8 7 8 10 17 24 25 25
31 28 20 12 12 16 17 18 15 5 7 5 3 6 4 4 5 5 9 9 6 6 5 4 4 3 3 4 4 5 5 4 3 2 2 3 4 6 7 4 6 15 21 18 8 3 4 4 2 2 3 2 2 3 1 2 2 4 4 3 2 2 2 2 3 4 3 5 6 3 5 6 6 7 4 3 10 13 11 8 8 10 9 9 16 23 24 23
28 23 12 9 16 21 19 15 10 2 5 2 4 5 3 3 4 10 13 10 6 7 6 4 4 4 5 5 6 6 5 4 4 3 2 2 4 4 5 5 5 9 18 18 8 3 1 3 2 1 1 1 3 2 6 3 0 1 1 1 1 1 3 4 3 3 4 5 5 5 4 4 6 8 7 9 12 14 11 8 10 12 12 14 19 23 24 24
25 16 8 15 21 20 16 10 2 3 3 1 3 3 4 4 5 10 14 12 5 4 3 5 7 6 6 8 7 5 4 4 3 3 3 3 5 5 3 3 5 4 5 8 6 3 3 3 3 1 1 1 2 4 8 9 7 4 3 3 3 1 1 1 1 1 3 4 4 4 7 8 5 4 10 15 15 12 10 9 10 10 12 18 23 25 25 26
22 9 8 19 20 17 15 6 1 0 1 1 2 3 6 7 5 7 12 12 5 3 2 3 5 4 5 7 7 7 6 5 5 3 3 2 3 2 6 14 11 7 4 1 4 4 1 3 3 2 0 3 4 3 3 7 9 9 8 8 9 7 4 3 5 2 2 2 4 2 8 10 5 3 8 11 8 7 7 8 9 7 11 19 24 25 25 24
16 6 11 19 18 17 14 3 2 4 0 3 5 5 7 8 6 8 11 10 6 3 2 4 4 4 4 5 8 10 9 7 7 4 2 4 3 2 12 29 25 14 6 2 6 6 4 1 3 3 4 5 4 3 1 1 2 3 5 6 6 7 7 7 7 3 2 2 2 3 5 9 3 0 4 6 3 2 4 7 6 6 11 17 21 22 23 22
15 12 14 18 18 18 11 3 4 5 1 5 7 6 7 6 5 8 9 8 7 4 3 2 3 5 6 6 7 9 9 6 5 7 8 8 7 6 18 32 29 17 9 4 3 4 4 3 4 6 4 2 3 3 2 4 2 2 5 4 4 7 8 5 3 2 2 5 5 3 6 10 5 1 2 5 5 3 4 7 5 4 9 14 18 20 21 22
18 17 13 17 18 14 8 3 3 3 3 6 5 5 7 5 5 9 7 5 7 5 3 4 4 5 5 5 4 5 7 5 4 8 8 8 11 13 20 29 24 12 6 6 7 7 5 2 5 6 3 2 2 2 3 2 0 3 4 4 5 7 5 1 0 1 2 7 10 7 9 10 5 4 4 5 6 5 3 6 7 6 7 10 14 17 19 21
15 11 10 17 18 13 10 6 5 2 4 7 5 5 7 5 8 12 8 4 8 7 4 5 5 5 6 6 4 3 3 3 3 6 5 7 11 12 17 26 21 10 9 14 15 11 5 3 4 4 4 6 4 3 3 2 2 2 3 5 7 8 8 4 3 4 6 10 10 8 11 11 4 6 6 6 7 7 5 4 7 9 9 8 10 13 16 19
8 3 6 14 14 13 10 10 10 5 3 6 5 5 6 4 7 13 9 4 10 13 8 5 6 8 8 10 9 6 3 1 2 5 6 8 7 8 17 26 19 12 13 18 19 11 3 3 5 7 8 7 6 4 2 3 4 4 7 9 10 11 13 10 6 7 11 12 9 9 13 15 10 5 8 8 6 6 6 4 4 8 11 10 10 12 13 16
3 0 2 6 7 7 7 9 11 6 2 5 4 3 5 5 5 8 7 5 12 15 7 3 6 9 8 11 9 6 7 7 5 5 8 8 6 10 21 22 13 10 13 14 14 9 3 6 8 11 13 11 10 12 8 2 3 6 8 9 11 11 13 13 11 14 15 10 12 13 14 18 18 9 7 13 11 8 7 5 4 8 11 12 11 13 15 16
2 2 3 3 3 2 4 7 8 4 3 5 3 2 4 6 5 5 5 5 11 13 5 2 8 10 8 9 6 5 10 11 7 5 6 9 10 12 18 15 9 7 13 12 9 5 1 7 9 11 14 13 13 15 16 11 7 8 8 10 12 11 13 15 16 20 16 10 15 15 9 13 17 10 10 14 10 8 9 11 13 13 12 13 13 15 18 20
2 3 4 4 3 4 7 11 11 5 3 4 3 1 3 4 4 5 4 4 7 8 5 4 8 10 9 8 6 6 8 8 7 6 8 13 14 11 12 12 8 5 10 11 8 2 3 5 9 10 12 14 14 15 18 16 11 11 12 12 13 12 15 17 18 21 19 15 19 16 9 12 10 3 7 11 8 11 15 18 20 20 19 21 20 20 21 24
3 3 4 4 4 7 10 10 7 4 4 3 2 2 3 2 5 6 4 4 5 4 4 6 9 9 8 8 7 7 8 8 9 9 9 12 12 8 6 7 6 8 10 8 5 3 3 5 10 9 9 13 14 14 18 17 13 14 15 15 12 9 11 15 17 18 17 16 19 17 17 18 8 1 6 11 12 17 20 19 22 28 33 31 26 24 25 29
3 5 6 5 3 5 7 5 2 3 3 1 1 3 2 4 7 8 6 6 7 3 5 8 9 8 7 8 8 9 9 9 11 14 14 12 13 12 10 7 9 13 12 7 4 3 3 5 7 7 7 10 12 13 17 16 13 14 15 15 14 10 11 13 13 13 13 14 15 14 16 16 6 4 6 9 11 15 17 16 20 29 38 36 28 26 29 32
5 7 7 5 2 3 3 2 2 2 2 2 1 3 4 6 8 8 6 4 5 9 12 10 9 7 6 8 10 11 13 16 20 26 27 24 24 24 23 22 20 15 10 8 6 4 4 4 5 6 6 8 12 13 12 9 8 8 10 16 20 19 16 13 10 11 12 11 11 11 13 12 6 2 6 9 11 13 15 17 20 26 35 36 29 27 30 34
Wind_Direction
347 349 349 347 345 340 334 327 320 315 311 305 302 301 302 303 302 303 302 302 301 299 299 296 295 293 292 293 293 294 296 296 296 290 283 286 286 280 278 267 254 251 246 237 248 259 253 245 233 215 209 208 206 198 192 193 175 163 141 172 225 201 202 192 189 200 182 249 248 206 200 191 234 227 221 254 246 244 249 246 244 242 246 251 253 256 256 255
339 342 344 345 345 343 342 338 331 326 322 317 310 305 304 302 300 301 301 302 301 300 299 298 298 295 295 296 296 298 298 300 299 288 284 286 280 271 266 249 239 244 246 240 242 250 252 247 229 212 206 204 206 195 192 192 180 175 134 174 229 204 207 201 189 199 200 232 221 214 214 203 224 223 209 247 247 246 255 254 247 248 253 254 255 256 257 255
331 334 335 339 341 342 343 341 340 336 331 325 316 311 309 304 301 300 300 302 302 301 300 298 299 299 298 297 299 302 303 306 300 291 286 274 254 251 255 236 232 239 242 242 242 246 250 241 224 213 207 210 209 193 190 186 189 204 165 212 244 214 229 237 221 221 224 234 239 248 229 216 232 230 221 235 259 262 248 252 239 242 259 267 269 262 257 255
322 325 327 330 333 336 338 339 341 339 337 332 325 319 312 309 305 301 300 300 301 302 301 300 299 300 300 299 300 302 311 315 302 291 269 224 206 4 292 238 237 239 240 242 242 245 248 234 220 211 206 215 204 190 199 194 190 188 175 218 239 178 235 248 238 239 239 243 249 242 225 248 248 232 228 226 275 267 241 250 248 247 265 279 284 264 249 249
312 314 317 321 324 327 330 332 335 336 337 336 333 327 320 316 311 306 302 299 298 300 301 301 300 300 299 299 298 300 319 329 307 266 203 202 273 339 313 261 243 239 240 241 242 240 239 225 209 202 200 210 176 175 223 203 188 177 215 239 238 174 230 259 247 244 241 237 236 223 220 259 256 232 235 219 225 254 249 255 262 262 270 281 278 263 248 247
306 306 307 310 314 317 320 322 326 328 330 333 334 332 328 324 318 314 308 302 299 296 298 298 299 300 299 300 297 294 294 271 270 236 225 246 288 305 304 273 244 244 244 240 243 233 229 214 202 197 191 206 184 191 226 197 189 218 246 251 248 225 235 263 258 250 245 227 219 216 238 250 254 262 251 226 230 255 263 262 267 271 272 275 273 267 261 256
302 303 304 304 305 307 310 313 316 319 322 325 328 328 329 328 326 322 315 310 302 297 296 294 296 298 298 299 294 287 256 250 266 274 267 267 280 290 289 267 248 246 243 242 244 231 227 210 204 199 169 233 210 208 224 192 190 224 260 263 257 243 241 256 262 263 259 243 238 237 253 248 226 264 277 250 250 261 269 266 266 269 268 269 269 267 266 262
298 299 301 302 302 303 303 304 308 311 314 317 320 322 324 326 328 327 323 317 309 303 297 292 292 292 296 296 295 290 266 267 276 269 268 270 273 278 274 263 251 247 245 245 243 234 233 218 214 206 181 227 206 199 199 192 201 217 243 260 260 253 253 263 270 267 263 254 254 249 251 246 237 260 286 265 266 269 270 271 269 268 266 265 264 265 264 260
291 292 295 297 299 300 299 300 301 302 305 308 312 314 316 319 324 327 325 322 318 312 303 298 292 288 293 290 295 296 277 285 291 268 268 270 268 269 266 258 249 247 246 243 241 237 236 229 226 219 224 235 206 206 179 183 235 213 231 259 273 272 272 278 274 267 265 259 254 246 251 253 250 267 275 266 270 276 273 273 272 267 264 263 262 261 259 256
287 287 289 291 293 294 294 295 296 297 298 300 305 308 311 311 315 321 323 323 321 318 312 306 296 289 288 283 284 282 279 290 294 278 274 268 266 264 260 254 250 248 245 245 246 247 242 242 243 229 239 244 205 211 175 180 239 228 250 273 269 273 279 276 269 266 263 260 243 230 255 260 236 217 266 267 270 280 273 268 266 261 261 261 258 255 251 250
286 285 286 286 288 289 290 290 291 293 292 293 297 302 306 306 308 312 317 321 320 321 319 312 303 294 288 279 240 241 272 281 281 284 280 272 270 264 259 253 251 249 247 251 253 257 253 248 245 228 231 225 194 207 206 216 252 296 313 293 271 277 282 262 260 263 246 259 238 224 259 268 190 179 244 257 258 264 269 266 262 258 260 260 254 252 246 245
288 287 285 284 284 285 286 286 287 288 288 289 291 296 301 303 304 305 310 318 317 318 317 314 309 297 293 279 254 256 272 276 275 277 273 271 269 264 260 251 250 249 250 256 259 261 258 252 241 226 220 194 178 196 231 233 255 296 338 306 288 308 293 246 243 249 203 242 226 197 276 246 184 220 243 253 256 260 268 268 266 261 261 260 255 253 248 246
289 289 288 286 284 282 282 283 283 283 283 285 288 291 296 299 302 302 306 312 314 315 313 312 309 300 296 275 266 270 275 274 272 270 268 268 266 262 257 250 250 251 255 257 260 261 255 255 238 225 226 208 193 210 263 274 244 283 14 276 302 329 304 248 206 172 166 217 188 155 289 251 196 227 244 256 258 257 264 265 267 266 264 263 259 257 254 249
290 289 289 289 287 285 283 282 282 282 281 281 283 286 291 296 298 299 302 306 309 311 307 307 306 299 285 269 274 276 273 270 265 265 267 266 263 259 254 252 251 252 257 255 258 262 254 251 230 220 229 224 234 259 291 339 80 272 276 198 320 303 283 289 144 149 157 208 183 152 275 265 232 232 246 258 255 249 255 262 267 268 267 267 264 261 259 253
296 292 290 289 289 288 287 285 283 282 282 281 280 281 286 292 294 296 298 299 304 306 303 302 300 294 280 277 280 276 271 269 265 266 266 261 257 255 254 253 253 252 252 252 253 254 247 235 215 209 221 219 224 290 304 337 4 23 258 267 295 207 265 304 215 161 161 180 185 167 242 271 274 256 253 254 248 240 245 260 266 267 268 268 267 265 263 258
305 301 298 294 290 288 287 287 286 284 283 283 281 280 283 289 292 293 293 295 298 298 294 291 288 283 278 286 285 274 269 268 269 269 261 257 252 249 252 253 251 248 247 247 245 241 232 211 200 193 174 187 151 124 339 338 315 320 209 248 253 215 275 319 273 189 187 117 183 214 236 276 283 260 241 219 226 231 240 261 267 268 270 269 268 267 265 263
311 308 307 303 299 294 290 287 286 285 284 284 283 282 283 289 289 287 288 290 290 288 280 273 278 276 263 270 274 269 269 270 272 270 260 256 249 243 245 243 240 239 236 234 229 217 204 189 177 192 170 108 122 135 39 270 260 272 183 244 253 231 251 293 293 256 158 113 222 233 233 260 264 260 265 246 242 245 250 263 268 271 272 270 268 266 264 264
318 313 311 310 307 304 299 294 289 286 284 284 284 285 286 287 286 282 283 285 282 282 272 248 220 285 267 255 261 269 274 273 272 269 259 249 239 236 235 232 230 224 211 211 217 192 180 180 152 169 76 66 168 153 199 234 231 203 174 223 253 244 241 252 271 229 146 134 249 238 235 257 267 270 268 263 256 254 256 262 267 269 271 270 268 265 263 262
326 320 316 315 312 309 308 304 299 292 287 283 281 284 286 283 282 280 277 269 244 225 258 218 191 224 267 257 274 285 284 279 273 266 255 241 228 222 218 219 214 198 175 159 209 184 168 141 114 165 202 208 208 188 209 229 206 168 181 188 227 243 253 242 252 231 167 153 246 240 241 256 270 273 271 268 255 251 256 262 265 266 269 271 268 266 264 261
332 329 323 320 319 315 312 310 307 303 295 287 283 286 283 276 280 280 264 242 235 247 261 242 227 242 256 265 274 279 282 280 273 258 247 236 218 208 202 197 189 184 174 152 187 180 164 181 197 205 217 217 215 203 219 250 6 147 204 230 239 246 269 262 263 264 176 174 245 242 245 258 267 271 275 274 254 245 253 259 261 263 266 268 267 268 266 265
331 329 322 318 318 318 317 314 310 307 302 295 288 283 270 259 263 281 279 264 262 262 260 259 254 253 257 263 265 266 269 268 260 248 243 226 203 195 195 183 166 191 196 153 129 129 156 211 222 219 224 219 208 203 222 253 280 263 257 270 262 243 264 267 245 273 184 187 257 263 266 266 267 272 277 272 252 246 252 252 256 260 264 266 266 267 269 271
326 324 319 314 314 317 319 318 314 309 305 298 291 280 267 268 271 277 290 284 271 264 260 263 259 255 259 262 261 258 256 254 244 233 226 209 194 192 191 177 175 199 171 137 116 129 210 236 229 221 218 166 171 194 208 227 238 244 248 270 267 250 277 287 313 328 139 199 265 292 284 269 271 275 275 267 254 257 259 253 253 256 259 262 262 265 270 274
320 319 319 316 316 317 318 320 317 310 307 306 301 288 278 282 282 281 286 282 277 266 254 255 251 251 256 259 259 251 244 242 237 230 221 202 191 195 193 173 189 193 149 170 181 185 227 239 232 215 182 181 226 183 170 216 238 230 225 248 256 245 270 278 299 336 225 229 274 306 290 271 273 277 273 263 249 257 264 259 254 253 251 254 258 263 267 266
323 321 317 313 313 312 315 322 318 309 309 313 308 297 292 290 284 285 287 279 279 259 247 254 253 251 252 256 256 241 233 234 230 228 218 201 184 187 202 181 178 197 184 193 195 213 235 231 184 178 174 196 219 173 152 201 240 228 217 225 243 243 232 241 285 333 294 287 307 316 295 273 248 258 268 272 254 259 262 256 252 248 244 248 253 256 254 251
329 325 319 315 313 310 310 315 316 312 310 314 317 312 302 291 281 286 297 287 275 257 241 247 245 247 244 240 238 225 226 232 229 226 216 206 193 178 191 181 181 215 199 192 200 234 248 223 120 142 182 195 203 197 176 183 232 251 222 212 229 241 238 246 306 353 332 305 311 10 299 279 217 229 260 285 282 270 242 235 250 247 243 244 247 247 240 235
329 328 326 323 321 319 313 310 313 314 310 312 325 322 303 292 284 283 304 298 270 253 132 206 219 230 220 206 199 189 205 241 228 223 216 214 207 196 186 174 186 217 178 167 207 246 260 204 153 166 179 181 200 227 199 177 223 268 235 205 219 230 240 249 250 276 268 262 282 68 293 282 267 216 249 266 271 273 262 249 254 248 244 241 240 240 231 223
324 326 329 326 327 329 326 318 311 311 310 306 315 316 311 308 293 273 272 281 262 184 132 178 179 171 184 186 171 155 158 193 186 210 210 208 206 201 210 195 167 209 161 134 229 231 103 160 181 179 167 174 202 230 199 173 201 256 253 186 199 209 225 230 214 216 240 268 293 88 112 285 282 244 236 247 259 272 273 263 256 240 237 237 235 234 226 216
317 320 324 324 325 328 328 322 310 306 306 307 305 300 311 315 281 212 183 261 261 120 128 159 156 160 160 166 169 155 139 148 131 207 203 198 198 198 223 217 170 185 180 169 221 226 99 154 191 181 178 200 208 218 179 168 194 245 141 120 149 171 194 184 183 208 287 353 273 188 127 265 277 261 224 219 237 260 263 255 253 233 222 227 228 227 222 214
313 313 318 319 319 321 321 315 308 304 303 308 300 291 308 304 217 180 244 252 272 61 119 136 144 150 131 150 182 190 117 154 140 186 184 191 198 194 230 214 162 167 207 212 232 250 94 166 184 164 174 211 206 208 175 175 200 200 128 96 83 82 80 93 139 145 66 303 240 186 153 229 274 256 168 155 228 244 250 250 253 238 221 224 223 221 218 211
313 309 312 316 320 324 321 315 313 310 303 304 300 297 304 250 182 207 239 238 337 325 94 117 144 140 127 137 206 232 180 178 127 144 162 183 194 193 184 165 153 168 234 262 255 254 128 114 143 166 181 185 142 92 174 179 168 136 114 75 59 41 44 61 38 90 81 266 228 181 179 196 272 258 158 180 217 217 228 240 252 245 229 224 218 217 216 210
313 308 310 315 323 329 324 317 318 312 300 302 304 294 263 197 183 226 227 313 359 267 67 60 89 120 142 148 203 200 193 208 144 148 164 167 176 186 164 155 152 116 235 262 258 250 233 161 216 205 177 142 104 86 52 121 143 126 102 99 79 348 10 26 353 75 214 257 236 193 188 187 236 246 172 245 276 216 211 202 202 210 214 212 209 213 214 210
315 308 308 314 323 329 322 314 315 310 300 301 297 258 199 198 233 228 246 4 349 233 77 40 50 88 233 336 336 196 161 204 187 166 167 160 170 186 193 193 168 124 230 232 234 239 238 227 203 176 179 161 134 100 62 42 167 139 112 127 138 306 330 306 288 146 230 259 272 261 209 200 239 254 265 277 278 251 226 211 203 199 195 200 204 210 212 210
319 310 305 313 326 329 317 313 313 307 300 292 272 230 202 236 226 226 245 266 272 305 75 143 126 116 194 346 318 236 339 276 184 177 210 160 184 209 220 220 190 170 209 198 200 218 249 248 173 157 223 184 172 180 191 195 186 180 162 152 172 197 243 252 239 230 261 268 316 252 219 249 268 273 245 249 258 248 227 228 233 227 202 193 201 210 211 211
325 317 307 312 326 323 310 317 320 310 299 259 222 210 230 244 240 246 243 236 290 341 31 26 8 356 182 215 256 157 210 261 168 165 238 151 187 223 226 232 221 209 139 141 195 194 220 279 187 171 197 182 189 207 197 148 166 196 181 159 193 188 206 235 213 231 263 279 307 261 212 208 217 261 238 239 261 270 235 228 231 239 231 205 205 212 212 213
329 319 309 312 323 316 305 321 328 321 281 201 188 222 234 244 270 276 277 308 343 339 341 353 354 305 275 245 256 185 198 247 164 156 196 183 203 220 206 221 214 199 142 171 224 183 206 264 211 167 124 164 186 209 138 112 163 214 151 142 223 196 185 242 213 171 186 310 291 230 230 222 209 280 283 265 269 274 251 232 223 237 234 218 220 222 218 217
333 323 315 324 326 319 316 326 333 321 231 189 173 245 235 252 287 287 337 359 340 337 335 326 310 285 295 293 296 251 208 220 173 156 216 215 220 232 242 235 201 195 189 189 212 178 206 259 178 128 71 165 182 188 136 146 186 176 157 196 222 142 150 225 257 84 81 274 265 197 245 275 309 283 267 243 244 247 236 229 220 227 219 211 222 225 222 219
341 334 330 335 331 327 330 331 335 315 218 189 186 248 247 276 281 291 349 351 316 343 352 323 312 321 299 295 310 304 308 290 209 177 214 226 229 216 219 246 203 198 206 213 231 205 207 250 186 157 192 202 160 82 100 340 106 134 186 206 148 68 109 164 247 325 51 254 265 214 239 263 279 265 262 239 244 243 225 221 222 222 209 209 223 224 222 219
341 336 336 345 340 335 335 332 334 305 202 191 239 256 267 298 290 329 354 347 334 348 349 314 311 320 310 316 313 316 333 320 264 230 235 240 242 203 191 231 212 198 212 221 237 262 217 233 242 156 163 157 76 100 168 334 76 141 204 220 121 169 212 139 182 230 231 245 270 261 252 253 218 233 279 264 239 240 234 217 207 213 210 213 223 223 222 217
342 338 341 355 341 336 340 338 329 251 178 194 258 253 277 328 12 20 6 359 358 345 335 330 338 324 310 323 321 314 320 305 283 290 296 256 266 240 197 241 256 217 218 216 218 306 291 233 258 33 161 140 65 175 197 193 126 76 259 283 22 166 199 182 170 194 207 225 259 276 294 270 216 211 219 219 223 227 219 198 205 214 207 209 215 216 216 213
349 343 340 351 343 339 348 350 314 181 175 246 270 282 324 346 15 15 17 27 18 324 331 340 338 330 314 324 332 322 315 301 292 291 273 284 307 304 285 302 320 309 249 222 232 300 346 274 249 72 10 217 188 219 196 176 178 186 183 196 205 187 168 229 227 145 158 193 232 269 278 265 236 193 202 214 227 225 199 185 205 214 208 211 214 213 213 214
355 340 329 352 354 353 1 11 75 45 231 299 334 320 332 340 347 4 22 30 3 268 229 297 310 307 302 324 343 345 339 312 299 284 235 300 329 290 13 17 358 332 0 32 269 280 329 293 256 145 149 226 229 263 211 186 188 186 190 196 197 193 173 205 235 203 129 199 190 200 273 269 252 216 218 223 240 244 218 201 200 204 207 210 213 214 214 216
356 327 334 358 3 1 8 39 46 23 45 350 336 296 318 335 341 354 3 7 353 305 248 256 291 315 319 348 351 348 350 313 295 306 265 308 315 245 11 13 3 341 329 251 241 230 191 250 283 238 222 224 251 306 2 234 234 204 212 205 193 199 194 202 226 207 131 231 190 129 268 271 269 241 259 265 281 296 265 244 211 201 209 208 210 211 213 217
344 320 340 5 2 0 14 66 42 34 354 339 330 305 324 338 352 356 349 349 354 344 316 309 359 6 10 12 348 344 351 318 305 350 341 333 340 344 5 7 2 351 334 304 274 246 205 176 230 242 249 278 304 316 7 28 27 254 247 212 185 217 218 210 230 208 162 208 197 169 241 260 279 353 327 304 314 6 328 289 275 228 211 208 210 211 214 218
334 318 335 7 6 13 40 60 17 16 332 337 334 328 343 355 7 353 337 350 2 348 327 343 5 16 12 359 335 345 0 343 332 355 348 330 324 336 358 359 355 355 338 327 330 309 288 234 216 222 233 275 330 334 328 349 174 233 255 228 212 226 223 141 339 276 249 215 201 202 239 252 282 341 8 356 338 348 337 299 294 271 229 211 213 217 219 221
340 323 330 359 17 51 72 56 32 13 337 343 335 341 354 357 358 346 328 354 18 9 339 328 347 0 356 353 335 332 40 65 329 327 327 319 316 324 347 347 343 337 323 331 337 324 301 270 247 238 228 234 242 233 232 238 197 214 255 239 220 204 190 190 220 230 242 232 211 208 242 257 308 350 348 353 344 340 340 318 297 274 255 231 221 227 230 228
353 340 326 348 20 58 63 46 37 19 338 355 345 343 3 345 336 348 354 25 16 7 344 318 358 14 3 360 351 334 0 47 282 292 299 314 320 318 330 331 323 314 329 346 353 345 295 263 274 261 258 261 268 265 215 115 134 202 226 227 221 206 199 203 210 218 232 242 238 225 240 258 272 309 328 326 328 327 317 309 302 283 270 256 244 245 246 242
4 46 341 343 1 30 36 34 31 17 332 355 337 308 344 331 310 352 24 32 1 356 337 305 29 30 3 352 349 325 323 324 298 277 288 305 316 308 317 319 303 311 342 354 359 2 313 294 295 273 266 266 271 276 267 207 192 228 230 229 228 219 211 210 215 227 229 236 251 239 229 249 256 254 286 294 296 303 302 291 285 280 273 267 262 261 258 254
356 300 341 359 341 9 17 349 347 358 349 337 317 264 319 327 328 357 24 18 355 349 337 350 22 17 353 343 340 311 322 327 314 304 313 327 333 323 323 320 294 321 353 348 349 18 273 288 296 283 277 268 261 267 266 256 248 246 243 240 235 220 213 217 225 235 233 229 252 249 209 230 254 253 247 259 277 310 318 314 307 299 296 293 279 261 256 256
325 298 322 350 332 292 300 304 311 346 5 319 318 320 296 310 347 0 8 4 343 337 348 1 357 352 341 339 335 316 320 317 305 331 348 334 330 328 326 319 296 323 355 341 324 291 215 283 296 289 286 275 261 258 261 260 254 250 247 243 239 224 215 218 227 239 242 241 254 265 255 244 254 273 259 264 293 309 307 310 307 298 294 291 279 260 253 254
316 316 314 328 316 293 293 300 315 348 343 315 302 281 269 322 358 2 2 331 302 315 5 355 340 337 331 330 324 299 300 310 311 326 341 332 327 323 313 305 291 307 324 322 308 268 230 282 298 299 293 279 268 256 256 256 250 248 250 245 243 236 224 226 230 237 243 248 256 268 275 270 262 137 277 284 297 296 294 294 291 284 281 282 273 257 249 251
312 309 308 310 300 288 290 297 352 2 329 310 229 267 302 3 354 344 324 279 261 289 351 339 327 323 312 307 298 285 296 318 313 306 304 295 285 283 283 274 281 300 308 301 289 280 266 282 293 295 289 284 278 264 260 261 252 246 250 248 241 231 228 229 229 229 230 241 253 258 263 268 259 176 241 258 257 262 265 263 264 267 269 269 260 249 249 253
314 308 309 310 283 252 266 299 39 47 288 256 280 335 337 326 327 334 320 283 295 321 326 319 309 310 305 292 287 292 308 314 305 300 296 284 272 268 266 261 264 272 281 291 296 273 258 282 293 288 285 285 284 278 274 275 261 242 238 237 232 229 231 234 233 235 227 224 240 250 252 266 281 221 235 243 236 239 244 241 242 253 262 264 257 248 254 261